| time (UTC) | temp F | wind direction | speed MPH | gust MPH | rain 1hr in | rain 24hr in | rain mn in | humidity % | barometer mb |
| 20260506210022 | 67 | 194 | 0.0 | 2.0 | 0.00 | 0.14 | 0.14 | 87 | 1006.9 |
| 20260506204517 | 66 | 257 | 0.0 | 3.0 | 0.00 | 0.14 | 0.14 | 89 | 1006.9 |
| 20260506203015 | 65 | 203 | 0.0 | 2.0 | 0.00 | 0.14 | 0.14 | 91 | 1006.8 |
| 20260506201515 | 64 | 219 | 0.0 | 1.0 | 0.00 | 0.14 | 0.14 | 92 | 1007.1 |
| 20260506200014 | 64 | 193 | 0.0 | 0.0 | 0.00 | 0.14 | 0.14 | 92 | 1006.9 |
| 20260506194513 | 64 | 214 | 0.0 | 2.0 | 0.00 | 0.14 | 0.14 | 91 | 1007.0 |
| 20260506193012 | 64 | 214 | 0.0 | 4.0 | 0.00 | 0.14 | 0.14 | 91 | 1007.1 |
| 20260506191512 | 64 | 204 | 0.0 | 3.0 | 0.00 | 0.14 | 0.14 | 90 | 1007.2 |
| 20260506190011 | 64 | 203 | 0.0 | 1.0 | 0.00 | 0.14 | 0.14 | 92 | 1007.1 |
| 20260506184511 | 63 | 219 | 0.0 | 2.0 | 0.00 | 0.14 | 0.14 | 92 | 1007.3 |
| 20260506183012 | 63 | 228 | 0.0 | 3.0 | 0.00 | 0.14 | 0.14 | 92 | 1007.4 |
| 20260506181509 | 63 | 217 | 0.0 | 3.0 | 0.00 | 0.14 | 0.14 | 93 | 1007.5 |
| 20260506180012 | 63 | 219 | 0.0 | 7.0 | 0.00 | 0.14 | 0.14 | 94 | 1007.6 |
| 20260506174507 | 61 | 239 | 0.0 | 2.0 | 0.00 | 0.14 | 0.14 | 95 | 1007.7 |
| 20260506173006 | 61 | 189 | 0.0 | 2.0 | 0.00 | 0.14 | 0.14 | 95 | 1007.6 |
| 20260506171512 | 60 | 230 | 0.0 | 4.0 | 0.00 | 0.14 | 0.14 | 95 | 1007.7 |
| 20260506170005 | 60 | 198 | 0.0 | 3.0 | 0.00 | 0.14 | 0.14 | 95 | 1007.7 |
| 20260506164505 | 60 | 197 | 1.0 | 5.0 | 0.00 | 0.14 | 0.14 | 95 | 1007.6 |
| 20260506163008 | 60 | 214 | 0.0 | 4.0 | 0.00 | 0.14 | 0.14 | 96 | 1007.4 |
| 20260506161505 | 60 | 230 | 0.0 | 5.0 | 0.01 | 0.14 | 0.14 | 96 | 1007.8 |
| 20260506160006 | 60 | 169 | 1.0 | 4.0 | 0.02 | 0.14 | 0.14 | 96 | 1007.6 |
| 20260506154503 | 60 | 221 | 0.0 | 5.0 | 0.05 | 0.14 | 0.14 | 96 | 1007.7 |
| 20260506153001 | 60 | 140 | 0.0 | 4.0 | 0.06 | 0.14 | 0.14 | 97 | 1007.5 |
| 20260506151600 | 60 | 188 | 0.0 | 3.0 | 0.06 | 0.13 | 0.13 | 96 | 1007.4 |
| 20260506150101 | 60 | 243 | 0.0 | 5.0 | 0.05 | 0.12 | 0.12 | 96 | 1008.3 |
| 20260506144604 | 60 | 238 | 0.0 | 3.0 | 0.03 | 0.09 | 0.09 | 96 | 1008.4 |
| 20260506143059 | 60 | 241 | 0.0 | 4.0 | 0.03 | 0.08 | 0.08 | 95 | 1008.4 |
| 20260506141604 | 60 | 167 | 0.0 | 4.0 | 0.04 | 0.07 | 0.07 | 95 | 1008.1 |
| 20260506140114 | 60 | 274 | 0.0 | 2.0 | 0.05 | 0.07 | 0.07 | 96 | 1008.0 |
| 20260506134558 | 60 | 191 | 0.0 | 9.0 | 0.05 | 0.06 | 0.06 | 95 | 1007.9 |
| 20260506133102 | 60 | 217 | 0.0 | 2.0 | 0.05 | 0.05 | 0.05 | 93 | 1008.1 |
| 20260506131552 | 61 | 198 | 0.0 | 3.0 | 0.03 | 0.03 | 0.03 | 92 | 1008.1 |
| 20260506130051 | 61 | 213 | 0.0 | 1.0 | 0.02 | 0.02 | 0.02 | 91 | 1008.1 |
| 20260506124548 | 61 | 201 | 0.0 | 2.0 | 0.01 | 0.01 | 0.01 | 90 | 1008.2 |
| 20260506123047 | 62 | 225 | 0.0 | 3.0 | 0.00 | 0.00 | 0.00 | 87 | 1008.4 |
| 20260506121545 | 62 | 243 | 0.0 | 2.0 | 0.00 | 0.00 | 0.00 | 85 | 1008.6 |
| 20260506120047 | 62 | 240 | 0.0 | 3.0 | 0.00 | 0.00 | 0.00 | 83 | 1008.6 |
| 20260506114540 | 63 | 272 | 0.0 | 3.0 | 0.00 | 0.00 | 0.00 | 82 | 1008.3 |
| 20260506113046 | 63 | 129 | 0.0 | 2.0 | 0.00 | 0.00 | 0.00 | 80 | 1008.0 |
| 20260506111535 | 64 | 154 | 1.0 | 5.0 | 0.00 | 0.00 | 0.00 | 76 | 1007.9 |
| 20260506110036 | 64 | 85 | 1.0 | 7.0 | 0.00 | 0.00 | 0.00 | 75 | 1007.8 |
| 20260506104535 | 65 | 188 | 0.0 | 5.0 | 0.00 | 0.00 | 0.00 | 74 | 1007.5 |
| 20260506103035 | 65 | 281 | 0.0 | 3.0 | 0.00 | 0.00 | 0.00 | 72 | 1007.3 |
| 20260506101538 | 65 | 193 | 0.0 | 4.0 | 0.00 | 0.00 | 0.00 | 71 | 1007.4 |
| 20260506100032 | 66 | 207 | 0.0 | 8.0 | 0.00 | 0.00 | 0.00 | 70 | 1007.3 |
| 20260506094528 | 66 | 200 | 0.0 | 3.0 | 0.00 | 0.00 | 0.00 | 70 | 1007.1 |
| 20260506093023 | 66 | 206 | 0.0 | 4.0 | 0.00 | 0.00 | 0.00 | 69 | 1007.1 |
| 20260506091522 | 66 | 252 | 0.0 | 4.0 | 0.00 | 0.00 | 0.00 | 68 | 1007.3 |
| 20260506090020 | 66 | 94 | 0.0 | 6.0 | 0.00 | 0.00 | 0.00 | 67 | 1007.5 |
| 20260506084523 | 66 | 122 | 0.0 | 4.0 | 0.00 | 0.00 | 0.00 | 67 | 1007.6 |
| 20260506083018 | 66 | 146 | 0.0 | 8.0 | 0.00 | 0.00 | 0.00 | 67 | 1007.5 |
| 20260506081517 | 67 | 233 | 0.0 | 6.0 | 0.00 | 0.00 | 0.00 | 66 | 1007.6 |
| 20260506073009 | 68 | 214 | 0.0 | 3.0 | 0.00 | 0.00 | 0.00 | 63 | 1007.7 |
| 20260506071507 | 68 | 207 | 0.0 | 5.0 | 0.00 | 0.00 | 0.00 | 62 | 1007.9 |
| 20260506061606 | 69 | 110 | 0.0 | 6.0 | 0.00 | 0.00 | 0.00 | 59 | 1008.4 |
| 20260506044611 | 68 | 213 | 0.0 | 4.0 | 0.00 | 0.00 | 0.00 | 54 | 1009.0 |
| 20260506043047 | 68 | 203 | 0.0 | 3.0 | 0.00 | 0.00 | 0.00 | 52 | 1009.0 |
| 20260506041545 | 69 | 210 | 0.0 | 3.0 | 0.00 | 0.00 | 0.00 | 52 | 1009.0 |
| 20260506040046 | 69 | 208 | 0.0 | 4.0 | 0.00 | 0.00 | 0.00 | 50 | 1009.1 |
| 20260506034544 | 68 | 193 | 0.0 | 3.0 | 0.00 | 0.00 | 0.00 | 50 | 1009.0 |
| 20260506033043 | 69 | 129 | 0.0 | 2.0 | 0.00 | 0.00 | 0.00 | 49 | 1009.0 |
| 20260506031543 | 69 | 128 | 0.0 | 4.0 | 0.00 | 0.00 | 0.00 | 47 | 1009.0 |
| 20260506030043 | 70 | 174 | 0.0 | 3.0 | 0.00 | 0.00 | 0.00 | 46 | 1009.0 |
| 20260506024542 | 70 | 138 | 0.0 | 4.0 | 0.00 | 0.00 | 0.00 | 44 | 1009.0 |
| 20260506023051 | 71 | 155 | 0.0 | 4.0 | 0.00 | 0.00 | 0.00 | 43 | 1009.1 |
| 20260506021543 | 71 | 200 | 0.0 | 6.0 | 0.00 | 0.00 | 0.00 | 43 | 1009.0 |
| 20260506020039 | 71 | 174 | 0.0 | 3.0 | 0.00 | 0.00 | 0.00 | 42 | 1008.8 |
| 20260506014539 | 71 | 196 | 0.0 | 2.0 | 0.00 | 0.00 | 0.00 | 42 | 1008.8 |
| 20260506013036 | 72 | 187 | 0.0 | 4.0 | 0.00 | 0.00 | 0.00 | 41 | 1008.8 |
| 20260506011536 | 72 | 214 | 0.0 | 2.0 | 0.00 | 0.00 | 0.00 | 42 | 1008.6 |
| 20260506010047 | 73 | 226 | 0.0 | 2.0 | 0.00 | 0.00 | 0.00 | 40 | 1008.4 |
| 20260506004535 | 73 | 218 | 0.0 | 5.0 | 0.00 | 0.00 | 0.00 | 40 | 1008.2 |
| 20260506003034 | 74 | 269 | 0.0 | 3.0 | 0.00 | 0.00 | 0.00 | 40 | 1008.1 |
| 20260506001537 | 74 | 231 | 0.0 | 3.0 | 0.00 | 0.00 | 0.00 | 40 | 1007.9 |
| 20260506000033 | 75 | 226 | 0.0 | 5.0 | 0.00 | 0.00 | 0.00 | 40 | 1007.9 |
| 20260505234554 | 75 | 196 | 0.0 | 4.0 | 0.00 | 0.00 | 0.00 | 39 | 1007.8 |
| 20260505233037 | 76 | 280 | 0.0 | 4.0 | 0.00 | 0.00 | 0.00 | 39 | 1007.7 |
| 20260505231532 | 77 | 64 | 1.0 | 5.0 | 0.00 | 0.00 | 0.00 | 38 | 1007.7 |
| 20260505230031 | 77 | 231 | 0.0 | 3.0 | 0.00 | 0.00 | 0.00 | 36 | 1007.4 |
| 20260505224533 | 78 | 259 | 1.0 | 7.0 | 0.00 | 0.00 | 0.00 | 34 | 1007.5 |
| 20260505223028 | 78 | 203 | 2.0 | 7.0 | 0.00 | 0.00 | 0.00 | 34 | 1007.7 |
| 20260505221527 | 79 | 218 | 0.0 | 10.0 | 0.00 | 0.00 | 0.00 | 34 | 1007.9 |
| 20260505220026 | 79 | 219 | 1.0 | 11.0 | 0.00 | 0.00 | 0.00 | 35 | 1007.6 |
| 20260505214552 | 80 | 302 | 1.0 | 5.0 | 0.00 | 0.00 | 0.00 | 34 | 1007.5 |
| 20260505213023 | 80 | 266 | 2.0 | 8.0 | 0.00 | 0.00 | 0.00 | 34 | 1007.5 |
| 20260505211522 | 81 | 206 | 1.0 | 7.0 | 0.00 | 0.00 | 0.00 | 35 | 1007.7 |